Time,TemperatureF,DewpointF,PressureIn,WindDirection,WindDirectionDegrees,WindSpeedMPH,WindSpeedGustMPH,Humidity,HourlyPrecipIn,Conditions,Clouds,dailyrainin,SoftwareType,DateUTC
2013-03-05 00:00:00,65.5,63.1,29.71,South,180,8.9,-999.0,92,-99.99,,,0.00,Acu-Link.com,2013-03-05 06:00:00,
2013-03-05 00:15:00,65.5,63.1,29.70,SE,135,5.3,-999.0,92,-99.99,,,0.00,Acu-Link.com,2013-03-05 06:15:00,
2013-03-05 00:30:00,65.5,63.1,29.70,SSE,157,8.3,-999.0,92,-99.99,,,0.00,Acu-Link.com,2013-03-05 06:30:00,
2013-03-05 00:45:00,65.3,62.9,29.71,South,180,8.3,-999.0,92,-99.99,,,0.00,Acu-Link.com,2013-03-05 06:45:00,
2013-03-05 01:00:00,65.3,62.9,29.71,ESE,112,6.8,-999.0,92,-99.99,,,0.00,Acu-Link.com,2013-03-05 07:00:00,
2013-03-05 01:15:00,65.1,62.7,29.70,South,180,6.3,-999.0,92,-99.99,,,0.00,Acu-Link.com,2013-03-05 07:15:00,
2013-03-05 01:30:00,65.1,62.7,29.69,SE,135,6.8,-999.0,92,-99.99,,,0.00,Acu-Link.com,2013-03-05 07:30:00,
2013-03-05 01:45:00,64.9,62.5,29.69,SSE,157,6.8,-999.0,92,-99.99,,,0.00,Acu-Link.com,2013-03-05 07:45:00,
2013-03-05 02:00:00,64.9,62.8,29.70,South,180,5.8,-999.0,93,-99.99,,,0.00,Acu-Link.com,2013-03-05 08:00:00,
2013-03-05 02:16:00,64.9,62.8,29.70,SE,135,4.7,-999.0,93,-99.99,,,0.00,Acu-Link.com,2013-03-05 08:16:00,
2013-03-05 02:31:00,64.6,62.5,29.70,SSE,157,5.8,-999.0,93,-99.99,,,0.00,Acu-Link.com,2013-03-05 08:31:00,
2013-03-05 02:46:00,64.6,62.5,29.72,ESE,112,4.7,-999.0,93,-99.99,,,0.00,Acu-Link.com,2013-03-05 08:46:00,
2013-03-05 03:01:00,64.4,62.3,29.73,SE,135,7.3,-999.0,93,-99.99,,,0.00,Acu-Link.com,2013-03-05 09:01:00,
2013-03-05 03:16:00,64.4,62.3,29.71,East,90,2.7,-999.0,93,-99.99,,,0.00,Acu-Link.com,2013-03-05 09:16:00,
2013-03-05 03:31:00,64.0,62.2,29.69,SSE,157,3.7,-999.0,94,-99.99,,,0.00,Acu-Link.com,2013-03-05 09:31:00,
2013-03-05 03:46:00,64.0,62.2,29.69,SE,135,6.3,-999.0,94,-99.99,,,0.00,Acu-Link.com,2013-03-05 09:46:00,
2013-03-05 04:01:00,63.7,61.9,29.69,South,180,6.3,-999.0,94,-99.99,,,0.00,Acu-Link.com,2013-03-05 10:01:00,
2013-03-05 04:16:00,63.9,62.1,29.70,South,180,4.2,-999.0,94,-99.99,,,0.00,Acu-Link.com,2013-03-05 10:16:00,
2013-03-05 04:32:00,63.7,61.9,29.70,SE,135,5.3,-999.0,94,-99.99,,,0.00,Acu-Link.com,2013-03-05 10:32:00,
2013-03-05 04:47:00,63.7,61.9,29.70,SSE,157,3.7,-999.0,94,-99.99,,,0.00,Acu-Link.com,2013-03-05 10:47:00,
2013-03-05 05:02:00,63.5,62.0,29.71,South,180,3.7,-999.0,95,-99.99,,,0.00,Acu-Link.com,2013-03-05 11:02:00,
2013-03-05 05:17:00,63.1,61.6,29.72,SSE,157,3.7,-999.0,95,-99.99,,,0.00,Acu-Link.com,2013-03-05 11:17:00,
2013-03-05 05:32:00,63.0,61.5,29.73,SSE,157,3.7,-999.0,95,-99.99,,,0.00,Acu-Link.com,2013-03-05 11:32:00,
2013-03-05 05:47:00,62.4,61.2,29.73,SSE,157,3.2,-999.0,96,-99.99,,,0.00,Acu-Link.com,2013-03-05 11:47:00,
2013-03-05 06:02:00,62.1,61.2,29.75,SSE,157,3.2,-999.0,97,-99.99,,,0.00,Acu-Link.com,2013-03-05 12:02:00,
2013-03-05 06:17:00,61.9,61.0,29.78,SSE,157,1.7,-999.0,97,-99.99,,,0.00,Acu-Link.com,2013-03-05 12:17:00,
2013-03-05 06:32:00,61.3,60.7,29.83,WNW,292,5.3,-999.0,98,-99.99,,,0.00,Acu-Link.com,2013-03-05 12:32:00,
2013-03-05 06:48:00,63.9,62.1,29.90,NNE,22,8.9,-999.0,94,-99.99,,,0.00,Acu-Link.com,2013-03-05 12:48:00,
2013-03-05 07:03:00,64.4,62.0,29.91,NW,315,8.3,-999.0,92,-99.99,,,0.00,Acu-Link.com,2013-03-05 13:03:00,
2013-03-05 07:18:00,64.6,61.9,29.91,NNW,337,6.3,-999.0,91,-99.99,,,0.00,Acu-Link.com,2013-03-05 13:18:00,
2013-03-05 07:33:00,65.1,62.1,29.92,WNW,292,4.7,-999.0,90,-99.99,,,0.00,Acu-Link.com,2013-03-05 13:33:00,
2013-03-05 07:48:00,65.7,62.4,29.91,WNW,292,6.8,-999.0,89,-99.99,,,0.00,Acu-Link.com,2013-03-05 13:48:00,
2013-03-05 08:03:00,66.2,62.9,29.90,West,270,2.2,-999.0,89,-99.99,,,0.00,Acu-Link.com,2013-03-05 14:03:00,
2013-03-05 08:18:00,69.3,63.9,29.92,NNE,22,4.2,-999.0,83,-99.99,,,0.00,Acu-Link.com,2013-03-05 14:18:00,
2013-03-05 08:33:00,70.9,64.1,29.94,NNE,22,6.3,-999.0,79,-99.99,,,0.00,Acu-Link.com,2013-03-05 14:33:00,
2013-03-05 08:48:00,67.1,57.0,29.97,NW,315,14.5,-999.0,70,-99.99,,,0.00,Acu-Link.com,2013-03-05 14:48:00,
2013-03-05 09:04:00,61.9,52.0,29.99,NNE,22,6.3,-999.0,70,-99.99,,,0.00,Acu-Link.com,2013-03-05 15:04:00,
2013-03-05 09:19:00,60.8,49.8,30.00,NNE,22,10.4,-999.0,67,-99.99,,,0.00,Acu-Link.com,2013-03-05 15:19:00,
2013-03-05 09:34:00,59.4,47.2,30.02,NNE,22,11.9,-999.0,64,-99.99,,,0.00,Acu-Link.com,2013-03-05 15:34:00,
2013-03-05 09:49:00,58.8,44.9,30.03,WNW,292,10.9,-999.0,60,-99.99,,,0.00,Acu-Link.com,2013-03-05 15:49:00,
2013-03-05 10:04:00,58.6,44.3,30.04,North,0,15.5,-999.0,59,-99.99,,,0.00,Acu-Link.com,2013-03-05 16:04:00,
2013-03-05 10:19:00,58.6,43.9,30.05,WNW,292,7.8,-999.0,58,-99.99,,,0.00,Acu-Link.com,2013-03-05 16:19:00,
2013-03-05 10:34:00,59.0,44.2,30.06,SW,225,5.8,-999.0,58,-99.99,,,0.00,Acu-Link.com,2013-03-05 16:34:00,
2013-03-05 10:49:00,59.5,44.3,30.06,East,90,9.9,-999.0,57,-99.99,,,0.00,Acu-Link.com,2013-03-05 16:49:00,
2013-03-05 11:04:00,60.4,44.2,30.07,NNW,337,11.4,-999.0,55,-99.99,,,0.00,Acu-Link.com,2013-03-05 17:04:00,
2013-03-05 11:20:00,61.2,43.9,30.07,NNE,22,11.4,-999.0,53,-99.99,,,0.00,Acu-Link.com,2013-03-05 17:20:00,
2013-03-05 11:35:00,63.0,44.6,30.08,WNW,292,8.3,-999.0,51,-99.99,,,0.00,Acu-Link.com,2013-03-05 17:35:00,
2013-03-05 11:50:00,64.8,44.1,30.08,WNW,292,6.8,-999.0,47,-99.99,,,0.00,Acu-Link.com,2013-03-05 17:50:00,
2013-03-05 12:05:00,66.0,42.9,30.08,West,270,7.8,-999.0,43,-99.99,,,0.00,Acu-Link.com,2013-03-05 18:05:00,
2013-03-05 12:20:00,66.2,42.4,30.09,NNW,337,8.9,-999.0,42,-99.99,,,0.00,Acu-Link.com,2013-03-05 18:20:00,
2013-03-05 12:35:00,66.9,41.8,30.09,West,270,9.9,-999.0,40,-99.99,,,0.00,Acu-Link.com,2013-03-05 18:35:00,
2013-03-05 12:50:00,68.2,42.3,30.08,NNW,337,13.0,-999.0,39,-99.99,,,0.00,Acu-Link.com,2013-03-05 18:50:00,
2013-03-05 13:05:00,71.4,41.6,30.08,NNE,22,10.4,-999.0,34,-99.99,,,0.00,Acu-Link.com,2013-03-05 19:05:00,
2013-03-05 13:21:00,73.0,41.4,30.08,SSW,202,11.4,-999.0,32,-99.99,,,0.00,Acu-Link.com,2013-03-05 19:21:00,
2013-03-05 13:36:00,72.1,38.9,30.09,WNW,292,15.0,-999.0,30,-99.99,,,0.00,Acu-Link.com,2013-03-05 19:36:00,
2013-03-05 13:51:00,73.6,40.2,30.08,NE,45,14.0,-999.0,30,-99.99,,,0.00,Acu-Link.com,2013-03-05 19:51:00,
2013-03-05 14:06:00,73.8,39.5,30.08,West,270,6.8,-999.0,29,-99.99,,,0.00,Acu-Link.com,2013-03-05 20:06:00,
2013-03-05 14:21:00,72.7,37.7,30.07,NW,315,10.4,-999.0,28,-99.99,,,0.00,Acu-Link.com,2013-03-05 20:21:00,
2013-03-05 14:36:00,72.5,37.5,30.08,West,270,9.9,-999.0,28,-99.99,,,0.00,Acu-Link.com,2013-03-05 20:36:00,
2013-03-05 14:51:00,72.1,36.3,30.07,NNW,337,8.9,-999.0,27,-99.99,,,0.00,Acu-Link.com,2013-03-05 20:51:00,
2013-03-05 15:06:00,72.1,36.3,30.07,East,90,12.5,-999.0,27,-99.99,,,0.00,Acu-Link.com,2013-03-05 21:06:00,
2013-03-05 15:21:00,70.5,35.8,30.07,WNW,292,5.3,-999.0,28,-99.99,,,0.00,Acu-Link.com,2013-03-05 21:21:00,
2013-03-05 15:37:00,70.0,35.4,30.08,NNW,337,10.4,-999.0,28,-99.99,,,0.00,Acu-Link.com,2013-03-05 21:37:00,
2013-03-05 15:52:00,70.0,33.5,30.08,NNW,337,6.8,-999.0,26,-99.99,,,0.00,Acu-Link.com,2013-03-05 21:52:00,
2013-03-05 16:07:00,69.6,31.2,30.08,WNW,292,7.3,-999.0,24,-99.99,,,0.00,Acu-Link.com,2013-03-05 22:07:00,
2013-03-05 16:22:00,69.4,30.0,30.08,WNW,292,7.8,-999.0,23,-99.99,,,0.00,Acu-Link.com,2013-03-05 22:22:00,
2013-03-05 16:37:00,69.3,29.9,30.08,West,270,9.9,-999.0,23,-99.99,,,0.00,Acu-Link.com,2013-03-05 22:37:00,
2013-03-05 16:52:00,70.0,29.4,30.09,North,0,7.8,-999.0,22,-99.99,,,0.00,Acu-Link.com,2013-03-05 22:52:00,
2013-03-05 17:08:00,70.2,28.4,30.09,NE,45,8.3,-999.0,21,-99.99,,,0.00,Acu-Link.com,2013-03-05 23:08:00,
2013-03-05 17:23:00,69.1,27.5,30.09,NNW,337,6.8,-999.0,21,-99.99,,,0.00,Acu-Link.com,2013-03-05 23:23:00,
2013-03-05 17:38:00,68.4,26.9,30.10,West,270,6.8,-999.0,21,-99.99,,,0.00,Acu-Link.com,2013-03-05 23:38:00,
2013-03-05 17:57:00,68.2,26.8,30.11,West,270,7.3,-999.0,21,-99.99,,,0.00,Acu-Link.com,2013-03-05 23:57:00,
2013-03-05 18:25:00,68.0,26.6,30.11,NW,315,8.3,-999.0,21,-99.99,,,0.00,Acu-Link.com,2013-03-06 00:25:00,
2013-03-05 18:40:00,66.2,26.2,30.12,NNE,22,5.8,-999.0,22,-99.99,,,0.00,Acu-Link.com,2013-03-06 00:40:00,
2013-03-05 18:55:00,65.3,25.5,30.12,NNW,337,4.7,-999.0,22,-99.99,,,0.00,Acu-Link.com,2013-03-06 00:55:00,
2013-03-05 19:10:00,64.6,24.9,30.12,NNW,337,7.3,-999.0,22,-99.99,,,0.00,Acu-Link.com,2013-03-06 01:10:00,
2013-03-05 19:25:00,64.0,25.5,30.13,WNW,292,2.7,-999.0,23,-99.99,,,0.00,Acu-Link.com,2013-03-06 01:25:00,
2013-03-05 19:41:00,63.1,26.7,30.14,NW,315,3.7,-999.0,25,-99.99,,,0.00,Acu-Link.com,2013-03-06 01:41:00,
2013-03-05 19:56:00,62.1,26.8,30.15,NNE,22,3.2,-999.0,26,-99.99,,,0.00,Acu-Link.com,2013-03-06 01:56:00,
2013-03-05 20:11:00,61.9,25.7,30.14,WNW,292,2.7,-999.0,25,-99.99,,,0.00,Acu-Link.com,2013-03-06 02:11:00,
2013-03-05 20:26:00,61.3,24.2,30.15,West,270,2.7,-999.0,24,-99.99,,,0.00,Acu-Link.com,2013-03-06 02:26:00,
2013-03-05 20:41:00,61.5,25.4,30.16,North,0,4.2,-999.0,25,-99.99,,,0.00,Acu-Link.com,2013-03-06 02:41:00,
2013-03-05 20:56:00,60.8,27.5,30.16,NNE,22,2.7,-999.0,28,-99.99,,,0.00,Acu-Link.com,2013-03-06 02:56:00,
2013-03-05 21:11:00,60.4,28.8,30.17,NW,315,8.3,-999.0,30,-99.99,,,0.00,Acu-Link.com,2013-03-06 03:11:00,
2013-03-05 21:27:00,59.9,27.6,30.17,NNW,337,4.7,-999.0,29,-99.99,,,0.00,Acu-Link.com,2013-03-06 03:27:00,
2013-03-05 21:42:00,59.2,27.8,30.18,North,0,3.2,-999.0,30,-99.99,,,0.00,Acu-Link.com,2013-03-06 03:42:00,
2013-03-05 21:57:00,59.0,28.4,30.20,NNW,337,6.8,-999.0,31,-99.99,,,0.00,Acu-Link.com,2013-03-06 03:57:00,
2013-03-05 22:13:00,58.6,27.3,30.21,NNE,22,6.3,-999.0,30,-99.99,,,0.00,Acu-Link.com,2013-03-06 04:13:00,
2013-03-05 22:28:00,58.5,28.0,30.22,WNW,292,5.3,-999.0,31,-99.99,,,0.00,Acu-Link.com,2013-03-06 04:28:00,
2013-03-05 22:43:00,58.1,26.8,30.22,WNW,292,4.7,-999.0,30,-99.99,,,0.00,Acu-Link.com,2013-03-06 04:43:00,
2013-03-05 22:58:00,57.9,25.8,30.21,NE,45,4.7,-999.0,29,-99.99,,,0.00,Acu-Link.com,2013-03-06 04:58:00,
2013-03-05 23:14:00,57.7,26.5,30.21,North,0,7.8,-999.0,30,-99.99,,,0.00,Acu-Link.com,2013-03-06 05:14:00,
2013-03-05 23:29:00,57.4,27.0,30.21,NNE,22,3.7,-999.0,31,-99.99,,,0.00,Acu-Link.com,2013-03-06 05:29:00,
2013-03-05 23:44:00,56.8,26.5,30.20,East,90,4.7,-999.0,31,-99.99,,,0.00,Acu-Link.com,2013-03-06 05:44:00,